Seward, AK

11:33 PM AKST on February 25, 2017 (GMT -0900)
Seward

Weather History for PAWD - November, 2010

Change the Weather History Date:

Thursday, November 11, 2010

  Actual Average Record
Temperature  
Mean Temperature 39 °F -  
Max Temperature 41 °F 37 °F 50 °F (1981)
Min Temperature 37 °F 27 °F 8 °F (1989)
Degree Days  
Heating Degree Days 26    
Moisture  
Dew Point 32 °F    
Average Humidity 76    
Maximum Humidity 89    
Minimum Humidity 67    
Precipitation  
Precipitation 0.04 in - - ()
Sea Level Pressure  
Sea Level Pressure 29.30 in    
Wind  
Wind Speed 9 mph (North)    
Max Wind Speed 18 mph    
Max Gust Speed 28 mph    
Visibility 10 miles    
Events Rain    
Averages and records for this station are not official NWS values.
T = Trace of Precipitation, MM = Missing Value Source: NWS Daily Summary

Daily Weather History Graph

Daily Weather History Graph

Search for Another Location

Airport or City:

Trip Planner

Search our weather history database for the weather conditions in past years. The results will help you decide how hot, cold, wet, or windy it might be!

Date:

Astronomy

Nov. 11, 2010 Rise Set
Actual Time 8:46 AM AKST 4:35 PM AKST
Civil Twilight 7:58 AM AKST 5:23 PM AKST
Nautical Twilight 7:07 AM AKST 6:15 PM AKST
Astronomical Twilight 6:18 AM AKST 7:04 PM AKST
Moon 1:59 PM AKST (11/11) 9:49 PM AKST (11/11)
Length of Visible Light 9h 25m
Length of Day
7h 48m
Waxing Crescent, 33% of the Moon is Illuminated
Nov 11
Waxing Crescent
Nov 13
First Quarter
Nov 21
Full
Nov 28
Last Quarter
Dec 5
New

Hourly Weather History & Observations

Time (AKST) Temp. Windchill Dew Point Humidity Pressure Visibility Wind Dir Wind Speed Gust Speed Precip Events Conditions
12:53 AM 39.9 °F 32.5 °F 30.0 °F 68% 29.33 in 10.0 mi North 12.7 mph 21.9 mph N/A   Overcast
1:53 AM 41.0 °F 32.2 °F 30.9 °F 67% 29.31 in 10.0 mi NNW 18.4 mph 27.6 mph 0.00 in   Overcast
2:53 AM 41.0 °F 34.3 °F 30.9 °F 67% 29.31 in 10.0 mi NNW 11.5 mph 19.6 mph 0.00 in Rain Light Rain
3:46 AM 39.2 °F 32.5 °F 32.0 °F 75% 29.32 in 10.0 mi North 10.4 mph - 0.00 in Rain Light Rain
3:53 AM 39.9 °F 31.8 °F 32.0 °F 73% 29.32 in 10.0 mi North 15.0 mph 23.0 mph 0.01 in Rain Light Rain
4:03 AM 39.2 °F 30.8 °F 32.0 °F 75% 29.31 in 10.0 mi North 15.0 mph - 0.00 in Rain Light Rain
4:53 AM 41.0 °F 34.3 °F 30.9 °F 67% 29.30 in 10.0 mi NNW 11.5 mph - 0.00 in   Overcast
5:53 AM 39.9 °F 37.8 °F 30.9 °F 70% 29.30 in 10.0 mi WNW 3.5 mph - N/A   Overcast
6:49 AM 39.2 °F - 33.8 °F 81% 29.33 in 10.0 mi Calm Calm - 0.00 in Rain Light Rain
6:53 AM 39.0 °F 35.7 °F 33.1 °F 79% 29.34 in 8.0 mi East 4.6 mph - 0.01 in Rain Light Rain
7:27 AM 37.4 °F - 33.8 °F 87% 29.33 in 10.0 mi Calm Calm - 0.02 in Rain Light Rain
7:53 AM 37.0 °F - 33.1 °F 86% 29.32 in 10.0 mi Calm Calm - 0.02 in   Overcast
8:53 AM 39.0 °F 31.4 °F 33.1 °F 79% 29.31 in 10.0 mi North 12.7 mph 20.7 mph N/A   Overcast
9:53 AM 39.0 °F - 33.1 °F 79% 29.32 in 10.0 mi Calm Calm - N/A   Overcast
10:27 AM 37.4 °F 34.9 °F 33.8 °F 87% 29.34 in 8.0 mi SE 3.5 mph - 0.01 in Rain Light Rain
10:43 AM 37.4 °F - 33.8 °F 87% 29.33 in 10.0 mi Calm Calm - 0.02 in Rain Light Rain
11:53 AM 37.9 °F - 35.1 °F 89% 29.33 in 10.0 mi Calm Calm - 0.00 in   Mostly Cloudy
12:53 PM 39.0 °F 36.8 °F 34.0 °F 82% 29.32 in 10.0 mi North 3.5 mph - N/A   Mostly Cloudy
1:53 PM 41.0 °F 36.4 °F 34.0 °F 76% 29.31 in 10.0 mi NNW 6.9 mph - N/A   Mostly Cloudy
2:53 PM 39.0 °F 34.0 °F 33.1 °F 79% 29.29 in 10.0 mi NW 6.9 mph - N/A   Clear
3:53 PM 39.9 °F 37.8 °F 32.0 °F 73% 29.29 in 10.0 mi NNE 3.5 mph - N/A   Scattered Clouds
4:53 PM 37.9 °F 33.5 °F 32.0 °F 79% 29.29 in 10.0 mi North 5.8 mph - N/A   Partly Cloudy
5:53 PM 37.9 °F 33.5 °F 30.9 °F 76% 29.29 in 10.0 mi North 5.8 mph - N/A   Mostly Cloudy
6:53 PM 39.0 °F 34.0 °F 30.9 °F 73% 29.29 in 10.0 mi North 6.9 mph - N/A   Overcast
7:53 PM 37.0 °F 31.6 °F 30.9 °F 79% 29.28 in 10.0 mi NNW 6.9 mph - N/A   Overcast
8:53 PM 37.9 °F 33.5 °F 30.0 °F 73% 29.27 in 10.0 mi North 5.8 mph - N/A   Clear
9:53 PM 39.9 °F 34.5 °F 30.0 °F 68% 29.26 in 10.0 mi North 8.1 mph - N/A   Overcast
10:53 PM 39.9 °F 31.1 °F 30.0 °F 68% 29.25 in 10.0 mi NNW 17.3 mph - N/A   Overcast
11:53 PM 39.0 °F 29.6 °F 30.0 °F 70% 29.24 in 10.0 mi NNW 18.4 mph 27.6 mph N/A   Overcast